Pawtucket, RI

1:42 AM EDT on July 25, 2017 (GMT -0400)
North Central State

Weather History for KSFZ - February, 2014

Change the Weather History Date:

Monday, February 3, 2014

  Actual Average Record
Temperature  
Mean Temperature 28 °F -  
Max Temperature 37 °F 34 °F 55 °F (2016)
Min Temperature 19 °F 20 °F 3 °F (2015)
Degree Days  
Heating Degree Days 37    
Moisture  
Dew Point 24 °F    
Average Humidity 78    
Maximum Humidity 93    
Minimum Humidity 65    
Precipitation  
Precipitation 0.06 in - - ()
Sea Level Pressure  
Sea Level Pressure 30.15 in    
Wind  
Wind Speed 8 mph (North)    
Max Wind Speed 15 mph    
Max Gust Speed 20 mph    
Visibility 6 miles    
Events      
Averages and records for this station are not official NWS values.
T = Trace of Precipitation, MM = Missing Value Source: NWS Daily Summary

Daily Weather History Graph

Daily Weather History Graph

Search for Another Location

Airport or City:

Trip Planner

Search our weather history database for the weather conditions in past years. The results will help you decide how hot, cold, wet, or windy it might be!

Date:

Astronomy

Feb. 03, 2014 Rise Set
Actual Time 6:56 AM EST 5:03 PM EST
Civil Twilight 6:27 AM EST 5:33 PM EST
Nautical Twilight 5:53 AM EST 6:06 PM EST
Astronomical Twilight 5:21 AM EST 6:38 PM EST
Moon 8:52 AM EST (2/3) 9:56 PM EST (2/3)
Length of Visible Light 11h 05m
Length of Day
10h 07m
Waxing Crescent, 19% of the Moon is Illuminated
Feb 3
Waxing Crescent
Feb 6
First Quarter
Feb 14
Full
Feb 22
Last Quarter
Mar 1
New

Hourly Weather History & Observations

Time (EST) Temp. Windchill Dew Point Humidity Pressure Visibility Wind Dir Wind Speed Gust Speed Precip Events Conditions
12:15 AM 37.4 °F 32.1 °F 28.4 °F 70% 30.06 in 10.0 mi WNW 6.9 mph - N/A   Overcast
12:35 AM 37.4 °F 31.4 °F 28.4 °F 70% 30.07 in 10.0 mi NW 8.1 mph - N/A   Mostly Cloudy
12:55 AM 37.4 °F 32.1 °F 28.4 °F 70% 30.07 in 10.0 mi NW 6.9 mph - N/A   Overcast
1:15 AM 37.4 °F 32.1 °F 28.4 °F 70% 30.07 in 10.0 mi NW 6.9 mph - N/A   Mostly Cloudy
1:35 AM 37.4 °F 32.8 °F 28.4 °F 70% 30.08 in 10.0 mi NW 5.8 mph - N/A   Mostly Cloudy
1:55 AM 37.4 °F 32.8 °F 28.4 °F 70% 30.08 in 10.0 mi NW 5.8 mph - N/A   Mostly Cloudy
2:15 AM 37.4 °F 31.4 °F 28.4 °F 70% 30.07 in 10.0 mi NNW 8.1 mph - N/A   Mostly Cloudy
2:35 AM 37.4 °F 31.4 °F 28.4 °F 70% 30.08 in 10.0 mi NNW 8.1 mph - N/A   Mostly Cloudy
2:55 AM 37.4 °F 31.4 °F 26.6 °F 65% 30.08 in 10.0 mi NNW 8.1 mph - N/A   Overcast
3:15 AM 35.6 °F 29.2 °F 28.4 °F 75% 30.09 in 10.0 mi NNW 8.1 mph - N/A   Overcast
3:35 AM 35.6 °F 30.7 °F 26.6 °F 70% 30.09 in 10.0 mi NNW 5.8 mph - N/A   Overcast
3:55 AM 35.6 °F 30.7 °F 26.6 °F 70% 30.09 in 10.0 mi North 5.8 mph - N/A   Overcast
4:15 AM 35.6 °F 30.7 °F 26.6 °F 70% 30.10 in 10.0 mi NNW 5.8 mph - N/A   Overcast
4:35 AM 35.6 °F 29.9 °F 26.6 °F 70% 30.09 in 10.0 mi North 6.9 mph - N/A   Overcast
4:55 AM 35.6 °F 29.9 °F 28.4 °F 75% 30.10 in 10.0 mi North 6.9 mph - N/A   Overcast
5:15 AM 35.6 °F 30.7 °F 26.6 °F 70% 30.11 in 10.0 mi North 5.8 mph - N/A   Overcast
5:35 AM 35.6 °F 29.2 °F 26.6 °F 70% 30.12 in 10.0 mi North 8.1 mph - N/A   Mostly Cloudy
5:55 AM 35.6 °F 29.2 °F 26.6 °F 70% 30.13 in 10.0 mi North 8.1 mph - N/A   Mostly Cloudy
6:15 AM 35.6 °F 27.5 °F 26.6 °F 70% 30.13 in 10.0 mi NNE 11.5 mph - N/A   Overcast
6:35 AM 35.6 °F 29.9 °F 26.6 °F 70% 30.14 in 10.0 mi NNE 6.9 mph - N/A   Mostly Cloudy
6:55 AM 35.6 °F 27.5 °F 24.8 °F 65% 30.15 in 10.0 mi NE 11.5 mph - N/A   Overcast
7:15 AM 35.6 °F 28.6 °F 24.8 °F 65% 30.15 in 10.0 mi NE 9.2 mph - N/A   Overcast
7:35 AM 35.6 °F 29.2 °F 24.8 °F 65% 30.15 in 10.0 mi NE 8.1 mph - N/A   Overcast
7:55 AM 33.8 °F 26.4 °F 26.6 °F 75% 30.16 in 1.8 mi NE 9.2 mph - N/A   Overcast
8:15 AM 33.8 °F 28.6 °F 26.6 °F 75% 30.16 in 1.8 mi NE 5.8 mph - N/A   Overcast
8:35 AM 33.8 °F 28.6 °F 23.0 °F 65% 30.16 in 5.0 mi NE 5.8 mph - N/A   Overcast
8:55 AM 33.8 °F 27.0 °F 23.0 °F 65% 30.16 in 8.0 mi NNE 8.1 mph 17.3 mph N/A   Overcast
9:15 AM 33.8 °F 25.8 °F 23.0 °F 65% 30.16 in 10.0 mi North 10.4 mph - N/A   Overcast
9:35 AM 32.0 °F 23.6 °F 23.0 °F 69% 30.17 in 3.0 mi NNE 10.4 mph - N/A   Overcast
9:55 AM 30.2 °F 20.8 °F 24.8 °F 80% 30.18 in 1.5 mi North 11.5 mph - N/A   Overcast
10:15 AM 30.2 °F 23.4 °F 24.8 °F 80% 30.19 in 1.0 mi North 6.9 mph - N/A   Overcast
10:35 AM 30.2 °F 21.9 °F 24.8 °F 80% 30.19 in 0.8 mi North 9.2 mph - N/A   Overcast
10:55 AM 28.4 °F 20.4 °F 26.6 °F 93% 30.18 in 0.8 mi North 8.1 mph - N/A   Overcast
11:15 AM 28.4 °F 20.4 °F 24.8 °F 86% 30.18 in 0.5 mi North 8.1 mph - N/A   Overcast
11:35 AM 28.4 °F 19.7 °F 24.8 °F 86% 30.16 in 0.5 mi North 9.2 mph - N/A   Overcast
11:55 AM 28.4 °F 19.1 °F 24.8 °F 86% 30.15 in 0.2 mi NNE 10.4 mph - N/A   Overcast
12:15 PM 28.4 °F 19.7 °F 24.8 °F 86% 30.15 in 0.5 mi NNE 9.2 mph - N/A   Overcast
12:35 PM 28.4 °F 21.2 °F 24.8 °F 86% 30.14 in 0.8 mi North 6.9 mph - N/A   Overcast
12:55 PM 28.4 °F 19.7 °F 26.6 °F 93% 30.14 in 0.5 mi NNE 9.2 mph - N/A   Overcast
1:15 PM 30.2 °F 23.4 °F 24.8 °F 80% 30.13 in 0.5 mi NNE 6.9 mph - N/A   Overcast
1:35 PM 30.2 °F 20.2 °F 26.6 °F 86% 30.13 in 0.5 mi NNE 12.7 mph - N/A   Overcast
1:55 PM 30.2 °F 21.9 °F 26.6 °F 86% 30.13 in 0.5 mi NE 9.2 mph - N/A   Overcast
2:15 PM 30.2 °F 20.2 °F 24.8 °F 80% 30.11 in 0.5 mi NNE 12.7 mph - N/A   Overcast
2:35 PM 28.4 °F 17.0 °F 24.8 °F 86% 30.12 in 1.0 mi NNE 15.0 mph 19.6 mph 0.01 in   Overcast
2:55 PM 28.4 °F 18.5 °F 24.8 °F 86% 30.12 in 1.0 mi NNE 11.5 mph - 0.01 in   Overcast
3:15 PM 28.4 °F 18.0 °F 24.8 °F 86% 30.13 in 1.0 mi NNE 12.7 mph 17.3 mph N/A   Overcast
3:35 PM 28.4 °F 19.1 °F 24.8 °F 86% 30.13 in 1.0 mi NNE 10.4 mph - N/A   Overcast
3:55 PM 28.4 °F 18.5 °F 24.8 °F 86% 30.13 in 1.2 mi North 11.5 mph - N/A   Overcast
4:15 PM 28.4 °F 17.5 °F 24.8 °F 86% 30.14 in 1.0 mi NNE 13.8 mph 18.4 mph 0.01 in   Overcast
4:35 PM 28.4 °F 18.5 °F 24.8 °F 86% 30.15 in 1.5 mi North 11.5 mph - 0.01 in   Overcast
4:55 PM 28.4 °F 19.1 °F 24.8 °F 86% 30.14 in 1.8 mi NNE 10.4 mph - 0.02 in   Overcast
5:15 PM 28.4 °F 18.0 °F 24.8 °F 86% 30.15 in 3.0 mi North 12.7 mph - 0.01 in   Overcast
5:35 PM 28.4 °F 19.1 °F 23.0 °F 80% 30.16 in 4.0 mi North 10.4 mph - 0.02 in   Overcast
5:55 PM 28.4 °F 18.5 °F 23.0 °F 80% 30.16 in 3.0 mi North 11.5 mph - 0.02 in   Overcast
6:15 PM 26.6 °F 16.2 °F 23.0 °F 86% 30.17 in 3.0 mi North 11.5 mph - N/A   Overcast
6:35 PM 26.6 °F 16.8 °F 23.0 °F 86% 30.17 in 5.0 mi North 10.4 mph - N/A   Overcast
6:55 PM 26.6 °F 16.8 °F 21.2 °F 80% 30.18 in 7.0 mi North 10.4 mph - 0.01 in   Overcast
7:15 PM 26.6 °F 17.5 °F 23.0 °F 86% 30.19 in 10.0 mi North 9.2 mph - N/A   Overcast
7:35 PM 26.6 °F 17.5 °F 23.0 °F 86% 30.19 in 10.0 mi North 9.2 mph - N/A   Overcast
7:55 PM 26.6 °F 18.2 °F 23.0 °F 86% 30.20 in 10.0 mi North 8.1 mph - N/A   Overcast
8:15 PM 26.6 °F 17.5 °F 23.0 °F 86% 30.20 in 10.0 mi North 9.2 mph - N/A   Overcast
8:35 PM 26.6 °F 19.1 °F 23.0 °F 86% 30.22 in 10.0 mi North 6.9 mph - N/A   Overcast
8:55 PM 26.6 °F 19.1 °F 21.2 °F 80% 30.23 in 10.0 mi NNW 6.9 mph - N/A   Overcast
9:15 PM 26.6 °F 17.5 °F 21.2 °F 80% 30.23 in 10.0 mi North 9.2 mph - N/A   Overcast
9:35 PM 26.6 °F 20.0 °F 21.2 °F 80% 30.23 in 10.0 mi North 5.8 mph - N/A   Overcast
9:55 PM 24.8 °F 17.9 °F 19.4 °F 80% 30.24 in 10.0 mi North 5.8 mph - N/A   Mostly Cloudy
10:15 PM 23.0 °F 15.8 °F 19.4 °F 86% 30.24 in 10.0 mi North 5.8 mph - N/A   Partly Cloudy
10:35 PM 23.0 °F 17.0 °F 17.6 °F 80% 30.24 in 10.0 mi NNW 4.6 mph - N/A   Clear
10:55 PM 19.4 °F - 15.8 °F 86% 30.27 in 10.0 mi Calm Calm - N/A   Clear
11:15 PM 21.2 °F 16.4 °F 17.6 °F 86% 30.27 in 10.0 mi NW 3.5 mph - N/A   Mostly Cloudy
11:35 PM 19.4 °F 14.3 °F 15.8 °F 86% 30.28 in 10.0 mi NNW 3.5 mph - N/A   Scattered Clouds
11:55 PM 21.2 °F 14.9 °F 17.6 °F 86% 30.27 in 10.0 mi NNW 4.6 mph - N/A   Partly Cloudy